www.pogodaiklimat.ru

Погода и климат >> Архив погоды >> Россия >> Свердловская область >> Висим


ПОГОДА в Висиме

  • Прогноз погоды в Висиме
  • Монитор погоды в Висиме

АРХИВ ПОГОДЫ в Висиме

Время (UTC), дата Ветер
(напр.,м/с)
 
Видим.   Явления Облачность Т
(С)
Тd
(С)
f
(%)
Тe
(С)
Тes
(С)
Комфортность P
(гПа)
Po
(гПа)
Тmin
(С)
Tmax
(С)
R
(мм)
R24
(мм)
S
(см)
09 13.04 СЗ 4 50 км 8/3 600 м
[Cu med, cong Ac und Ci fib]
+5.9 -7.6 37 +3 +6 1019.4 981.1
12 13.04 ЮЗ 2 50 км 8/0
[Ac und Ci fib]
+6.6 -8.8 32 +5 +8 1019.3 981.1
15 13.04 С 3 50 км 9/0
[Ac und]
+3.5 -7.7 44 0 0 1020.1 981.5 +6.8
18 13.04 С 3 50 км 8/0
[Ac und]
+0.3 -8.8 50 -4 -4 1021.8 982.7
21 13.04 СВ 6-10
{12}
50 км 8/0
[Ac und]
-1.1 -11.3 46 -7 -7 1024.0 984.6
00 14.04 В 5
{11}
50 км 8/0
[Ac und]
-2.9 -12.4 48 -9 -9 1025.6 985.9
03 14.04 СВ 6 50 км 4/0
[Ac trans]
-3.4 -12.8 48 -10 -10 1026.7 986.8 -3.9 8
06 14.04 СВ 5
{11}
50 км ясно -1.0 -12.7 41 -6 -2 1027.0 987.5
09 14.04 В 5
{11}
50 км ясно +1.3 -15.0 28 -3 +2 1026.7 987.5
12 14.04 В 3
{10}
50 км ясно +2.1 -17.5 22 -1 +3 1026.3 987.2
15 14.04 СВ 3 50 км ясно -0.5 -15.7 31 -4 -4 1026.3 986.9 +2.3
18 14.04 С 1 50 км ясно -4.4 -15.2 43 -6 -6 1026.8 986.8
21 14.04 штиль 0 50 км ясно -8.8 -13.1 71 -9 -9 1026.8 986.1
00 15.04 штиль 0 50 км ясно -11.1 -12.8 87 -11 -11 1026.3 985.3
03 15.04 штиль 0 50 км ясно -6.3 -11.5 67 -7 -4 1024.2 984.0 -12.1 6
06 15.04 З 4 50 км 3/0
[Ci fib]
+2.2 -14.5 28 -2 +4 1020.6 981.8
09 15.04 З 7-11
{11}
50 км 3/0
[Ci fib]
+4.8 -15.4 22 0 +3 1017.5 979.1
12 15.04 З 6-10
{11}
50 км 6/0
[Ac lent Ci fib]
+4.6 -14.4 24 +1 +2 1015.2 976.9
15 15.04 З 5
{11}
50 км 8/0
[Ac lent Ci fib]
+3.0 -13.1 29 -1 -1 1013.8 975.4 +5.5
18 15.04 З 6-11
{11}
50 км 4/0
[Ac lent Ci fib]
+1.1 -6.8 56 -5 -5 1012.7 974.0
21 15.04 З 5
{10}
10 км слаб. снег 10/0
[As op]
+0.1 -2.6 82 -6 -6 1011.1 972.4
00 16.04 З 4 2000 м слаб. снег 10/0 300 м
[As op]
-0.3 -0.6 98 -6 -6 1009.2 970.5
03 16.04 З 5 4000 м слаб. снег 10/0 300 м
[As op]
+0.3 -0.2 96 -6 -6 1007.3 968.7 -0.3 0.8 6
06 16.04 СЗ 5
{10}
4000 м слаб. снег 10/0 300 м
[As op]
+1.1 +0.7 97 -5 -4 1006.4 968.0
09 16.04 СЗ 5
{10}
4000 м слаб. снег 10/0 300 м
[As op]
+1.0 -1.0 86 -5 -4 1006.2 967.8
12 16.04 С 4
{11}
10 км в посл. час снег 10/0 300 м
[As op]
-2.0 -4.0 86 -8 -7 1009.2 970.2
15 16.04 С 5
{14}
20 км в посл. час ливневой снег 8/8 300 м
[Cb cap]
-3.2 -8.5 67 -10 -10 1011.6 972.3 +1.8 2
18 16.04 С 6-14
{14}
4000 м слаб. ливневой снег 10/10 300 м
[Cb cap]
-7.4 -9.6 84 -16 -16 1016.9 976.9
21 16.04 С 5
{14}
10 км слаб. снег 10/0 300 м
[As op]
-9.4 -12.5 78 -17 -17 1020.4 979.9
00 17.04 С 5 4000 м слаб. снег 10/0 300 м
[As op]
-10.6 -13.6 79 -18 -18 1022.3 981.6
03 17.04 С 5 10 км {снег} 8/6 300 м
[Cb cap Ac und]
-11.1 -15.2 72 -19 -19 1024.3 983.3 -11.6 3 12
06 17.04 С 7-11
{11}
20 км позёмок {снег} 9/9 300 м
[Cb cap]
-8.2 -14.3 61 -17 -17 1026.0 985.4
09 17.04 С 5-10
{12}
50 км {метель} 1/1 300 м
[Cu hum]
-3.8 -16.5 37 -10 -5 1026.7 986.8
12 17.04 С 4
{12}
50 км {метель} ясно -1.2 -16.7 30 -6 -3 1026.8 987.3
15 17.04 СЗ 4
{10}
50 км ясно -2.7 -17.2 32 -8 -8 1028.0 988.2 -1.2
18 17.04 СЗ 3 50 км ясно -6.1 -16.7 43 -11 -11 1029.5 989.1
21 17.04 СЗ 2 50 км ясно -9.6 -17.0 55 -14 -14 1030.3 989.4
00 18.04 Ю 1 50 км ясно -13.3 -16.8 75 -16 -16 1031.3 989.8
03 18.04 ЮВ 1 50 км 1/0
[Ci fib]
-9.8 -15.2 65 -12 -10 1031.2 990.3 -14.9 10
06 18.04 З 5 50 км ясно -1.3 -16.3 31 -7 -2 1029.2 989.5
09 18.04 З 5-10
{10}
50 км ясно +2.0 -15.4 26 -2 +3 1028.1 989.0
12 18.04 З 5
{10}
50 км 3/0
[Ci fib]
+3.6 -16.3 22 -0 +2 1027.2 988.3
15 18.04 СЗ 3 50 км 5/0
[Ci fib]
+1.4 -16.9 24 -2 -2 1027.2 988.0 +3.7
18 18.04 ЮВ 1 50 км 3/0
[Ci fib]
-3.8 -14.3 44 -5 -5 1028.4 988.4
21 18.04 Ю 1 50 км ясно -7.1 -13.2 62 -9 -9 1028.4 987.9
00 19.04 штиль 0 50 км ясно -9.9 -12.7 80 -10 -10 1028.1 987.2
03 19.04 ЮЗ 1 50 км ясно -4.5 -11.9 56 -6 -4 1026.7 986.7 -10.5 7
06 19.04 З 4 50 км 6/0
[Ac trans]
+4.0 -11.5 31 +1 +4 1024.0 985.3
09 19.04 СЗ 5
{11}
50 км 5/5 600 м
[Cu hum]
+6.1 -8.6 34 +3 +5 1022.2 983.9
12 19.04 СЗ 4
{11}
50 км 4/3 600 м
[Cu hum Ci fib]
+6.9 -9.2 31 +4 +6 1021.0 982.8
15 19.04 С 5 50 км 3/0
[Ac trans]
+4.3 -8.0 40 0 0 1021.1 982.5 +7.4
18 19.04 штиль 0 50 км ясно -2.1 -7.0 69 -3 -3 1022.5 983.0
21 19.04 З 1 50 км 3/0
[Ac trans]
-2.3 -6.5 73 -4 -4 1022.2 982.7
00 20.04 СЗ 2 50 км 6/0
[Ac trans]
-0.6 -5.5 69 -4 -4 1021.6 982.4
03 20.04 СЗ 4 50 км 8/0
[Ac und]
+0.6 -4.7 68 -4 -4 1021.9 982.8 -3.5 3

 

Местоположение метеостанции Висим (Свердловская область, Россия): широта 57.67 долгота 59.53 высота над уровнем моря 314 м.

В архиве по умолчанию представлена погода в Висиме за последнюю неделю. Архивные данные за месяц целиком и за предыдущие месяцы, начиная с января 2011 года, Вы можете получить, выбрав интересующий диапазон дат из раскрывающегося списка и нажав кнопку "Ввод!".


*Определитесь, кто Вы:
робот инопланетянин человек

Внимание! Время в таблицах - всемирное. Для получения местного времени необходимо прибавить поправку, которая равна 5 ч.

Смотрите также архив погоды в соседних городах и на ближайших метеорологических станциях:

Погода в Нижнем Тагиле (Свердловская область, Россия) (40 км)
Погода в Невьянске (Свердловская область, Россия) (47 км)
Погода в Кыне (Пермский край, Россия) (55 км)
Погода в Кушве (Свердловская область, Россия) (73 км)
Погода в Шамарах (Свердловская область, Россия) (86 км)
Погода в Ревде (Свердловская область, Россия) (92 км)
Погода в Бисерти (Свердловская область, Россия) (92 км)
Погода в Бисере (Пермский край, Россия) (103 км)
Погода в Качканаре (Свердловская область, Россия) (112 км)
Погода в Екатеринбурге (Свердловская область, Россия) (114 км)

Пояснения к столбцам:

Ветер - указаны скорость ветра в м/с - средняя за 10 мин, порывы в срок и между сроками (в фигурных скобках) и направление, откуда дует ветер: С - северный, СВ - северо-восточный, В - восточный, ЮВ - юго-восточный, Ю - южный, ЮЗ - юго-западный, З - западный, СЗ - северо-западный.
Видимость - горизонтальная дальность видимости в метрах или километрах. При видимости от 1 до 10 км при отсутствии осадков обычно наблюдается дымка, при ухудшении видимости до 1 км и менее - туман. В сухую погоду видимость может ухудшаться дымом, пылью или мглою.
Явления - указаны атмосферные явления, наблюдавшиеся в срок или в последний час перед сроком; фигурными скобками обозначены явления, наблюдавшиеся между сроками (за 1-3 часа до срока); квадратными скобками обозначены град или гололедные отложения с указанием их диаметра в мм.
Облачность - указаны через наклонную черту общая и нижняя облачность в баллах и высота нижней границы облаков в метрах; квадратными скобками обозначены формы облаков: Ci - перистые, Cs - перисто-слоистые, Cc - перисто-кучевые, Ac - высококучевые, As - высокослоистые, Sc - слоисто-кучевые, Ns - слоисто-дождевые, Cu - кучевые, Cb - кучево-дождевые. Подробнее классификацию облаков см. в Атласе облаков (PDF).
T - Температура воздуха - температура, измеренная на высоте 2 м над землей.
Td - Температура точки росы - температура, при понижении до которой содержащийся в воздухе водяной пар достигнет насыщения.
f - Относительная влажность воздуха - влажноcть воздуха, измеренная на высоте 2 м над землей.
Te - Эффективная температура - температура, которую ощущает одетый по сезону человек в тени. Характеристика душности погоды. При расчете учитывается влияние влажности воздуха и скорости ветра на теплоощущения человека.
Tes - Эффективная температура на солнце - температура, которую ощущает человек, с поправкой на солнечный нагрев. Характеристика знойности погоды. Зависит от высоты солнца над горизонтом, облачности и скорости ветра. Ночью, в пасмурную погоду, а также при ветре 12 м/с и более поправка равна нулю.
P - Атмосферное давление - приведенное к уровню моря атмосферное давление.
Po - Атмосферное давление - измеренное на уровне метеостанции атмосферное давление.
Tmin - Минимальная температура - минимум температуры воздуха на высоте 2 м над землей.
Tmax - Максимальная температура - максимум температуры воздуха на высоте 2 м над землей.
R - Количество осадков - Количество выпавших осадков за период времени, мм. При наведении курсора мыши на число - период времени, за который выпало указанное количество осадков.
R24 - Количество осадков - Количество выпавших осадков за 24 часа, мм.
S - Снежный покров - Высота снежного покрова, см. При наведении курсора мыши на число - состояние снежного покрова и степень покрытия местности в баллах.